UAL2471 KIAD-KDFW

Flight info

Callsign UAL2471
Flight time N/A
Altitude 26000
Route RNLDI4 OTTTO Q80 RONZZ BKW VXV GQO VUZ SQS FEWWW SEEVR4
Aircraft A319/M-SDE3FGHIRWY/LB1

Departure

Time 2026-05-05 14:34
Airport Washington Dulles International Airport (KIAD)

Arrival

Time N/A
Airport Dallas Fort Worth International Airport (KDFW)
Time Latitude Longitude Altitude Speed Heading
2026-05-05 14:18 38.94578 -77.44530 294 ft 0 kts 207°
2026-05-05 14:25 38.94579 -77.44530 294 ft 2 kts 207°
2026-05-05 14:25 38.94602 -77.44514 297 ft 4 kts 210°
2026-05-05 14:26 38.94624 -77.44498 292 ft 2 kts 208°
2026-05-05 14:26 38.94643 -77.44482 296 ft 4 kts 226°
2026-05-05 14:26 38.94657 -77.44454 292 ft 4 kts 261°
2026-05-05 14:26 38.94658 -77.44436 292 ft 1 kts 271°
2026-05-05 14:27 38.94658 -77.44434 292 ft 0 kts 271°
2026-05-05 14:29 38.94659 -77.44463 292 ft 6 kts 271°
2026-05-05 14:29 38.94659 -77.44535 292 ft 10 kts 270°
2026-05-05 14:29 38.94661 -77.44645 292 ft 14 kts 270°
2026-05-05 14:29 38.94661 -77.44778 292 ft 16 kts 271°
2026-05-05 14:30 38.94667 -77.44927 292 ft 18 kts 274°
2026-05-05 14:30 38.94667 -77.45091 294 ft 18 kts 269°
2026-05-05 14:30 38.94665 -77.45248 296 ft 18 kts 270°
2026-05-05 14:30 38.94667 -77.45405 294 ft 17 kts 271°
2026-05-05 14:31 38.94667 -77.45559 294 ft 15 kts 268°
2026-05-05 14:31 38.94592 -77.45610 295 ft 15 kts 180°
2026-05-05 14:31 38.94469 -77.45611 296 ft 20 kts 180°
2026-05-05 14:31 38.94313 -77.45612 295 ft 25 kts 180°
2026-05-05 14:32 38.94120 -77.45614 295 ft 30 kts 181°
2026-05-05 14:32 38.93905 -77.45617 296 ft 32 kts 180°
2026-05-05 14:32 38.93720 -77.45614 293 ft 22 kts 163°
2026-05-05 14:32 38.93616 -77.45497 296 ft 16 kts 163°
2026-05-05 14:33 38.93504 -77.45539 294 ft 18 kts 200°
2026-05-05 14:33 38.93387 -77.45597 296 ft 13 kts 204°
2026-05-05 14:33 38.93389 -77.45684 297 ft 12 kts 291°
2026-05-05 14:33 38.93474 -77.45971 296 ft 63 kts 290°
2026-05-05 14:34 38.93693 -77.46724 300 ft 117 kts 291°
2026-05-05 14:34 38.94041 -77.47913 324 ft 163 kts 289°
2026-05-05 14:34 38.94440 -77.49262 903 ft 163 kts 288°
2026-05-05 14:34 38.94612 -77.50701 1446 ft 169 kts 257°
2026-05-05 14:35 38.94296 -77.52176 1975 ft 175 kts 248°
2026-05-05 14:35 38.93881 -77.53659 2575 ft 183 kts 247°
2026-05-05 14:35 38.93603 -77.54729 2918 ft 195 kts 249°
2026-05-05 14:35 38.93013 -77.57095 3691 ft 223 kts 251°
2026-05-05 14:36 38.92525 -77.59069 4252 ft 237 kts 251°
2026-05-05 14:36 38.92022 -77.61115 4816 ft 242 kts 252°
2026-05-05 14:36 38.91507 -77.63192 5361 ft 246 kts 252°
2026-05-05 14:36 38.90984 -77.65292 5918 ft 248 kts 252°
2026-05-05 14:37 38.90456 -77.67404 6467 ft 249 kts 252°
2026-05-05 14:37 38.89926 -77.69525 7021 ft 251 kts 252°
2026-05-05 14:37 38.89223 -77.71602 7590 ft 256 kts 240°
2026-05-05 14:37 38.88197 -77.73477 8160 ft 258 kts 235°
2026-05-05 14:38 38.87136 -77.75334 8714 ft 259 kts 234°
2026-05-05 14:38 38.86067 -77.77210 9269 ft 263 kts 234°
2026-05-05 14:38 38.84991 -77.79110 9829 ft 264 kts 234°
2026-05-05 14:38 38.84271 -77.80379 10201 ft 268 kts 234°
2026-05-05 14:39 38.82768 -77.83025 10944 ft 286 kts 234°
2026-05-05 14:39 38.81555 -77.85161 11204 ft 308 kts 234°
2026-05-05 14:39 38.80278 -77.87497 11373 ft 331 kts 239°
2026-05-05 14:39 38.79383 -77.90280 11789 ft 344 kts 254°
2026-05-05 14:40 38.79105 -77.93357 12395 ft 353 kts 269°
2026-05-05 14:40 38.79516 -77.96483 13061 ft 361 kts 283°
2026-05-05 14:40 38.80283 -77.99558 13764 ft 363 kts 284°
2026-05-05 14:40 38.81052 -78.02657 14434 ft 365 kts 284°
2026-05-05 14:41 38.81822 -78.05777 15062 ft 369 kts 284°
2026-05-05 14:41 38.82594 -78.08924 15711 ft 371 kts 284°
2026-05-05 14:41 38.83370 -78.12100 16352 ft 373 kts 284°
2026-05-05 14:41 38.84148 -78.15285 16901 ft 376 kts 284°
2026-05-05 14:42 38.84669 -78.17413 17275 ft 378 kts 284°
2026-05-05 14:42 38.85284 -78.20694 17867 ft 378 kts 276°
2026-05-05 14:42 38.85439 -78.24058 18465 ft 378 kts 268°
2026-05-05 14:42 38.85411 -78.27450 19030 ft 381 kts 268°
2026-05-05 14:43 38.85388 -78.30865 19540 ft 385 kts 268°
2026-05-05 14:43 38.85371 -78.34312 20038 ft 388 kts 268°
2026-05-05 14:43 38.85365 -78.35487 20204 ft 389 kts 268°
2026-05-05 14:44 38.85337 -78.36612 20355 ft 390 kts 265°